Regional Weather Roundup
Issued by NWS

Home | Current Version | Previous Version | Graphics & Text | Print | Product List | Glossary On
Versions: 1 2 3 4 5 6 7 8 9 10 11 12 13 14 15 16 17 18 19 20 21 22 23 24 25 26 27 28 29 30 31 32 33 34 35 36 37 38 39 40 41 42 43 44 45 46 47 48 49 50
000
ASUS45 KTFX 250219
RWRMT
MONTANA HOURLY WEATHER ROUNDUP
NATIONAL WEATHER SERVICE GREAT FALLS MT
719 PM MST WED DEC 24 2014

NOTE: "FAIR" INDICATES FEW OR NO CLOUDS BELOW 12000 FEET WITH NO
SIGNIFICANT WEATHER AND/OR OBSTRUCTIONS TO VISIBILITY.

* THESE STATIONS ARE NOT UNDER NWS QUALITY CONTROL. THEY DO NOT
   REPORT WEATHER SUCH AS PRECIPITATION OR FOG.

MTZ001>007-043-250300-
WEST OF THE DIVIDE
CITY           SKY/WX    TMP DP  RH WIND       PRES   REMARKS
KALISPELL      LGT SNOW  34  30  85 NW6       29.58R VSB 1    WCI  29
MISSOULA       LGT RAIN  36  32  85 NW10      29.54R WCI  29
BUTTE          LGT SNOW  28  28 100 N6        29.41F VSB 1 1/4 WCI  21
MULLAN PASS    LGT SNOW  25  21  85 NW8       29.53R VSB 1/2  WCI  16
* ESSEX        N/A       30  29  96 N/A        N/A
* HAMILTON APT CLOUDY    36  36 100 NW3       29.49R
* LIBBY APT    CLOUDY    32  30  92 CALM      29.63R VSB 3
* LINCOLN      N/A       29  27  92 E9G16      N/A   WCI  21
* LOOKOUT PASS N/A       27  26  96 N7         N/A   WCI  19
* POLSON       N/A       32  32 100 N/A        N/A
* RONAN APT    CLOUDY    34  30  85 N8         N/A   WCI  27
* SEELEY LAKE  N/A       32  31  96 NW4        N/A
* THOMP F APT  CLOUDY    23  20  88 E5G10      N/A   WCI  16
* YAAK HILL    N/A       33  30  89 NW1        N/A
$$

MTZ008-052>055-250300-
SOUTHWEST MONTANA
CITY           SKY/WX    TMP DP  RH WIND       PRES   REMARKS
BOZEMAN        LGT SNOW  32  30  92 N6        29.43S VSB 2    WCI  26
DILLON         LGT SNOW  30  25  82 CALM      29.41F VSB 3
* W YELLOWSTON CLOUDY    21  19  92 NE3        N/A
* THREE FORKS  CLOUDY    36  27  70 SW16G26    N/A   WCI  26
* BOULDER HILL N/A       29  26  89 NE9        N/A   WCI  21
* MONIDA PASS  N/A       21  21 100 SE12G17    N/A   WCI   9
* RAYNOLDS PAS N/A       22   5  48 SE16       N/A   WCI   8
* WHITEHALL    N/A       37  23  57 W12G20     N/A   WCI  29
* WISE RIVER   N/A       29  27  92 SE7G12     N/A   WCI  22
$$

MTZ009>010-012-014-046-048-049-054-250300-
EAST SLOPES AND CENTRAL MONTANA
CITY           SKY/WX    TMP DP  RH WIND       PRES   REMARKS
CUT BANK       LGT SNOW  28  27  96 N17       29.59R VSB 1    WCI  16
GREAT FALLS    LGT SNOW  30  30 100 N13       29.52R VSB 3/4  WCI  20
HELENA         LGT SNOW  32  30  92 W7        29.47R VSB 3/4  WCI  25
MALMSTROM AFB  LGT SNOW  30  32 N/A N15       29.54R VSB 1 3/4 WCI  19
* CONRAD       CLOUDY    30  30 100 W8         N/A   WCI  22
* DEARBORN     N/A       32  31  96 VRB8       N/A   WCI  25
* EAST GLACIER N/A       25  24  96 E6         N/A   WCI  18
* MONARCH      N/A       26  23  88 NW8        N/A   WCI  18
* PENDROY      N/A       28  28 100 N15        N/A   WCI  16
* SWEET GRASS  N/A       28  28 100 NE17G24    N/A   WCI  16
* WHITE SULPH  N/A       32  27  82 S7G14      N/A   WCI  25
$$

MTZ011-013-016-021-035-040-045-047-050-051-250300-
NORTH CENTRAL MONTANA
CITY           SKY/WX    TMP DP  RH WIND       PRES   REMARKS
HAVRE          N/A       34  32  92 NW3       29.58R
LEWISTOWN      LGT SNOW  32  28  85 E7        29.47R VSB 2 1/2 WCI  25
* N BAR RANCH  FOG       30  28  92 NE8G17    29.48R VSB 1 1/4 WCI  22
* CHINOOK      CLOUDY    34  32  92 W3        29.58R
* CHESTER      N/A       32  30  92 NE4        N/A
* DENTON       N/A       31  30  96 N8         N/A   WCI  24
* GEYSER       N/A       30  30 100 NE9        N/A   WCI  22
* JUDITH GAP   N/A       29  29 100 N17        N/A   WCI  17
* LOMA         N/A       33  32  96 N11        N/A   WCI  24
$$

MTZ017>020-022>027-061-062-250300-
NORTHEAST MONTANA
CITY           SKY/WX    TMP DP  RH WIND       PRES   REMARKS
GLASGOW        CLOUDY    30  27  89 NW6       29.52R WCI  24
GLENDIVE       CLOUDY    34  30  85 N6        29.51R WCI  29
JORDAN         CLOUDY    34  32  92 CALM      29.51R
SIDNEY         MOCLDY    28  25  89 CALM      29.52S
WOLF POINT     MOCLDY    30  25  82 CALM      29.52R
* BEAVER HILL  N/A       32  30  92 NW2        N/A
* CIRCLE       N/A       34  31  89 N/A        N/A
* LINDSAY DVD  N/A       32  30  92 NW9        N/A   WCI  24
* NAVAJO       N/A       26  21  81 NW17       N/A   WCI  13
* PLENTYWOOD A PTCLDY    25  19  78 W3        29.48S
* POPLAR APT   PTCLDY    28  25  89 N/A       29.52R
* SACO         N/A       31  29  92 NW4        N/A
$$

MTZ028>042-056>058-250300-
SOUTHCENTRAL AND SOUTHEAST MONTANA
CITY           SKY/WX    TMP DP  RH WIND       PRES   REMARKS
BAKER          LGT SNOW  32  30  92 W5        29.48S WCI  27
BILLINGS       CLOUDY    37  27  67 NE16      29.44R WCI  28
LIVINGSTON     CLOUDY    36  25  64 W25G35    29.39F WCI  24
MILES CITY     LGT SNOW  32  30  92 N7        29.49S VSB 2    WCI  25
* BIG TIMBER A CLOUDY    36  25  64 W17       29.42R WCI  26
* FORSYTH APT  CLOUDY    34  34 100 N6        29.48F VSB 1 1/2 WCI  29
* LAUREL APT   CLOUDY    39  16  39 W6         N/A   WCI  35
* ROUNDUP APT  CLOUDY    32  28  85 N5         N/A   WCI  27
* ALZADA       N/A       33  27  79 N/A        N/A
* HYSHAM       N/A       34  31  89 NE6G11     N/A   WCI  29
* LAME DEER    N/A       34  20  57 NE6        N/A   WCI  29
* REED POINT   N/A       35  23  62 SW1        N/A
* ROSCOE HILL  N/A       39  11  31 SW14G24    N/A   WCI  31
$$

REGIONAL REPORTS...DAKOTAS
CITY           SKY/WX    TMP DP  RH WIND       PRES   REMARKS
WILLISTON      PTCLDY    27  21  78 NE3       29.49S
DICKINSON      CLOUDY    34  30  85 NW7       29.44S WCI  28
BEACH          CLOUDY    32  32 100 N5        29.48S WCI  27
CROSBY         CLEAR     23  23 100 W10       29.47S WCI  13
TIOGA          CLEAR     19  19 100 W9        29.49R WCI   8
WATFORD CITY   CLEAR     28  27  96 SW5       29.47S WCI  22
BISMARCK       CLOUDY    28  27  96 CALM      29.47R
GRAND FORKS    FOG       28  27  96 S13       29.45F WCI  17
FARGO          CLOUDY    28  25  89 S13       29.49F WCI  17
BUFFALO SD     CLOUDY    36  27  70 N12       29.38S WCI  28
RAPID CITY     CLOUDY    32  25  75 CALM      29.43F
$$

REGIONAL REPORTS...WYOMING/IDAHO/WASHINGTON
CITY           SKY/WX    TMP DP  RH WIND       PRES   REMARKS
GILLETTE       CLOUDY    37  25  62 SW17      29.39F WCI  27
SHERIDAN       CLOUDY    34  27  76 VRB5      29.41S WCI  29
CODY           CLOUDY    37  27  67 SW17      29.40F WCI  27
YELLOWSTONE LA CLOUDY    21  19  92 CALM      29.49F
SALMON         CLOUDY    30  28  92 CALM      29.47S VSB 3/4
MULLAN PASS    LGT SNOW  25  21  85 NW8       29.53S VSB 1/2  WCI  16
SAND POINT     CLOUDY    32  32 100 CALM      29.67S
SPOKANE        CLOUDY    34  32  92 W10       29.68R WCI  26
$$

REGIONAL REPORTS...ALBERTA
CITY           SKY/WX    TMP DP  RH WIND       PRES   REMARKS
CALGARY        MOCLDY    23  14  68 N6        29.64R WCI  16
LETHBRIDGE     CLOUDY    32  23  69 N2        29.65R
MEDICINE HAT   CLOUDY    30  23  75 NW7       29.62R WCI  23
EDMONTON       LGT SNOW  23  18  81 N13G21    29.71R WCI  11
WATERTON GATE  N/A       25  25 100 N2         N/A
CARDSTON       N/A       27  27 100 N6         N/A   WCI  20
MILK RIVER     N/A       28  27  96 N9         N/A   WCI  19
$$

REGIONAL REPORTS...SASKATCHEWAN
CITY           SKY/WX    TMP DP  RH WIND       PRES   REMARKS
SWIFT CURRENT  CLOUDY    25  21  85 NW13      29.52R WCI  13
REGINA         CLOUDY    25  23  92 W12       29.45S WCI  14
VAL MARIE      N/A       28  23  81 NW9        N/A   WCI  19
ASSINIBOIA     N/A       19  18  96 W10        N/A   WCI   8

$$




USA.gov is the U.S. government's official web portal to all federal, state and local government web resources and services.